Location: Milton
(43.5183°N, 79.8775°W)
Time: 15:20:59
(UTC+00:00)

UNISAT 6 - Pass Details

Date: 24 March 2023
Orbit: 599 x 680 km, 97.7° (Epoch: 02 June)

Event Time Altitude Azimuth Distance (km) Brightness Sun altitude
Rises 08:33:24 0° 111° (ESE) 2,891 ? -28.6°
Reaches altitude 10° 08:37:11 10° 76° (ENE) 2,012 ? -28.1°
Maximum altitude 08:38:26 11° 59° (ENE) 1,948 ? -27.9°
Drops below altitude 10° 08:39:41 10° 43° (NE) 2,031 ? -27.7°
Sets 08:43:33 0° 9° (N) 2,971 ? -27.1°
